www.pogodaiklimat.ru

Погода и климат >> Архив погоды >> Индия >> Махараштра >> Мумбаи


АРХИВ ПОГОДЫ в Мумбаи

Время (UTC), дата Ветер
(напр.,м/с)
 
Видим.   Явления Облачность Т
(С)
Тd
(С)
f
(%)
Тe
(С)
Тes
(С)
Комфортность P
(гПа)
Po
(гПа)
Тmin
(С)
Tmax
(С)
R
(мм)
R24
(мм)
S
(см)
15 9.07 штиль 0 2000 м слаб. морось 10/6 360 м
[Frnb As op]
+28.6 +25.5 83 +42 +42 опасность
перегрева
1002.7 1001.1 2
18 9.07 ЮЗ 4 2000 м мгла 6/6 600 м
[Cu Sc]
+28.6 +25.5 83 +42 +42 опасность
перегрева
1003.3 1001.7 2
21 9.07 ЮЗ 2 2000 м мгла 8/6 600 м
[Cu Sc Ac trans]
+28.2 +25.7 86 +42 +42 опасность
перегрева
1001.5 999.9 2
00 10.07 Ю 2 2000 м дождь 9/6 360 м
[Frnb As op]
+27.2 +25.5 90 +40 +40 очень
душно
1000.9 999.3 5
03 10.07 штиль 0 2000 м мгла 10/6 420 м
[Frnb As op]
+27.8 +25.5 87 +41 +41 опасность
перегрева
1002.6 1001.0 +26.2 7
06 10.07 З 2 2000 м слаб. дождь {морось} 10/8 360 м
[Frnb As op]
+27.4 +25.4 89 +40 +41 очень
душно
1003.6 1002.0 0.6
09 10.07 СЗ 3 2000 м слаб. дождь 10/8 240 м
[Frnb As op]
+26.0 +24.6 92 +37 +37 очень
душно
1002.8 1001.2 12
12 10.07 штиль 0 2000 м слаб. дождь {морось} 10/8 240 м
[Frnb As op]
+27.0 +25.9 94 +40 +41 очень
душно
1002.3 1000.7 +28.3 22
15 10.07 З 6 2000 м мгла {дождь} 10/8 240 м
[Frnb As op]
+27.0 +24.4 86 +38 +38 очень
душно
1004.5 1002.9 28
18 10.07 З 2 2000 м слаб. морось {дождь} 10/8 360 м
[Frnb As op]
+27.8 +26.4 92 +42 +42 опасность
перегрева
1004.4 1002.8 43
21 10.07 З 3 2000 м слаб. дождь {морось} 10/8 300 м
[Frnb As op]
+27.8 +25.8 89 +41 +41 опасность
перегрева
1003.2 1001.6 43
00 11.07 ЮЗ 3 2000 м мгла {дождь} 9/6 420 м
[Frnb Ac As]
+28.4 +25.9 86 +42 +42 опасность
перегрева
1003.4 1001.8 44
03 11.07 З 4 2000 м в посл. час дождь {морось} 10/8 240 м
[Frnb As op]
+28.0 +26.6 92 +43 +43 опасность
перегрева
1005.5 1003.9 +25.0 50
06 11.07 З 3 2000 м мгла {дождь} 10/8 240 м
[Frnb As op]
+30.0 +26.9 84 +47 +48 опасность
перегрева
1006.5 1004.9 0.6
09 11.07 З 2 2000 м мгла 9/6 540 м
[Cu Sc Ac trans]
+30.4 +25.0 73 +44 +48 опасность
перегрева
1005.5 1003.9 0.6
12 11.07 ЮЗ 3 2000 м мгла 9/5 360 м
[Frnb Ac trans Ci fib]
+30.4 +25.9 77 +45 +46 опасность
перегрева
1004.4 1002.8 +31.2 0.6
15 11.07 ЮЗ 3 2000 м в посл. час дождь {морось} 8/5 540 м
[Cu Sc Ac trans]
+27.0 +22.6 77 +36 +36 очень
душно
1005.9 1004.3 3
18 11.07 ЮЗ 4 2000 м слаб. морось {дождь} 10/8 300 м
[Frnb As op]
+28.2 +25.7 86 +42 +42 опасность
перегрева
1006.8 1005.2 3
21 11.07 Ю 2 2000 м в посл. час дождь {туман} 9/6 360 м
[Frnb As op]
+26.2 +24.8 92 +37 +37 очень
душно
1005.4 1003.8 5
00 12.07 штиль 0 2000 м слаб. дождь {морось} 9/6 360 м
[Frnb As op]
+26.2 +25.1 94 +38 +38 очень
душно
1005.4 1003.8 21
03 12.07 ЮЗ 3 2000 м мгла {дождь} 10/8 360 м
[Frnb Ac As]
+28.2 +25.9 87 +42 +42 опасность
перегрева
1006.6 1005.0 +23.0 25
06 12.07 ЮЗ 4 2000 м мгла 9/5 540 м
[Cu Sc Ac trans Ci fib]
+31.4 +26.1 74 +47 +51 опасность
перегрева
1007.0 1005.4 0.0
09 12.07 ЮЗ 4 2000 м слаб. дождь {морось} 9/6 240 м
[Frnb Ac trans]
+30.8 +26.0 76 +46 +49 опасность
перегрева
1006.2 1004.6 0.8
12 12.07 ЮЗ 3 2000 м слаб. дождь {морось} 8/6 540 м
[Cu Sc Ac trans]
+29.6 +26.5 83 +45 +46 опасность
перегрева
1005.6 1004.0 +32.1 2
15 12.07 ЮЗ 4 2000 м мгла 6/6 540 м
[Cu Sc]
+29.0 +26.2 85 +44 +44 опасность
перегрева
1007.0 1005.4 2
18 12.07 ЮЗ 3 2000 м мгла 6/6 540 м
[Cu Sc]
+28.8 +26.0 85 +43 +43 опасность
перегрева
1007.8 1006.2 2
21 12.07 ЮЗ 3 2000 м мгла 5/5 600 м
[Cu Sc]
+28.6 +25.8 85 +43 +43 опасность
перегрева
1006.8 1005.2 2
00 13.07 З 3 2000 м мгла {дождь} 5/5 600 м
[Cu Sc]
+28.2 +25.4 85 +41 +41 опасность
перегрева
1005.8 1004.2 2
03 13.07 ЮЗ 4 2000 м слаб. дождь {метель} 10/8 240 м
[Frnb As op]
+29.0 +25.6 82 +43 +43 опасность
перегрева
1006.9 1005.3 +25.4 4
06 13.07 З 3 2000 м слаб. морось {дождь} 10/8 240 м
[Frnb As op]
+29.0 +24.7 78 +41 +42 опасность
перегрева
1008.5 1006.9 5
09 13.07 ЮЗ 4 2000 м мгла 10/8 300 м
[Frnb Ac As]
+30.4 +25.9 77 +45 +46 опасность
перегрева
1005.9 1004.3 5
12 13.07 ЮЗ 3 2000 м в посл. час дождь {морось} 10/8 360 м
[Frnb As op]
+27.8 +25.8 89 +41 +42 опасность
перегрева
1006.5 1004.9 +30.6 7
15 13.07 ЮЗ 3 2000 м мгла {дождь} 9/6 540 м
[Cu Sc Ac trans]
+28.6 +26.4 88 +44 +44 опасность
перегрева
1007.1 1005.5 9
18 13.07 ЮЗ 3 2000 м мгла 9/6 540 м
[Cu Sc Ac trans]
+28.8 +27.1 91 +46 +46 опасность
перегрева
1008.5 1006.9 9
21 13.07 ЮЗ 4 2000 м мгла 6/6 540 м
[Cu Sc]
+28.4 +26.2 88 +43 +43 опасность
перегрева
1006.9 1005.3 9
00 14.07 ЮЗ 3 2000 м мгла 8/8 540 м
[Cu Sc]
+28.4 +25.6 85 +42 +42 опасность
перегрева
1006.5 1004.9 9
03 14.07 ЮЗ 3 2000 м мгла 8/6 540 м
[Cu Sc Ci fib]
+29.0 +26.2 85 +44 +46 опасность
перегрева
1007.8 1006.2 +25.4 11
06 14.07 ЮЗ 3 2000 м слаб. дождь {морось} 10/8 300 м
[Frnb Ac As]
+27.8 +25.5 87 +41 +42 опасность
перегрева
1008.6 1007.0 2
09 14.07 З 2 2000 м слаб. морось {дождь} 10/8 300 м
[Frnb As op]
+30.0 +25.2 76 +44 +44 опасность
перегрева
1006.7 1005.1 2
12 14.07 ЮЗ 2 2000 м в посл. час дождь 9/6 360 м
[Frnb Ac As]
+29.8 +26.5 83 +46 +47 опасность
перегрева
1005.6 1004.0 +31.2 3
15 14.07 штиль 0 2000 м мгла 8/6 600 м
[Cu Sc Ac trans]
+29.0 +25.6 82 +43 +43 опасность
перегрева
1006.6 1005.0 3
18 14.07 ЮЗ 2 2000 м мгла 8/5 600 м
[Cu Sc Ac trans]
+28.8 +25.7 83 +43 +43 опасность
перегрева
1007.1 1005.5 3
21 14.07 ЮЗ 2 2000 м мгла 9/5 600 м
[Cu Sc Ac trans]
+28.6 +25.5 83 +42 +42 опасность
перегрева
1005.2 1003.6 3
00 15.07 штиль 0 2000 м в посл. час дождь {морось} 9/6 600 м
[Cu Sc Ac trans]
+28.2 +25.7 86 +42 +42 опасность
перегрева
1004.6 1003.0 3
03 15.07 З 2 2000 м мгла 9/5 540 м
[Cu Sc Ac trans]
+29.8 +25.6 78 +44 +46 опасность
перегрева
1006.5 1004.9 +27.4 3
06 15.07 З 3 2000 м дым 9/6 420 м
[Frnb Ac trans]
+31.0 +25.4 72 +45 +49 опасность
перегрева
1006.9 1005.3
09 15.07 ЮЗ 2 2000 м дым 9/6 360 м
[Frnb As op]
+31.0 +25.7 73 +46 +49 опасность
перегрева
1005.9 1004.3
12 15.07 ЮЗ 2 2000 м мгла 9/6 360 м
[Frnb Ac As]
+30.0 +25.2 76 +44 +44 опасность
перегрева
1005.1 1003.5 +32.1
15 15.07 ЮЗ 2 2000 м мгла 8/6 600 м
[Cu Sc Ac trans]
+29.2 +25.2 79 +42 +42 опасность
перегрева
1005.3 1003.7
18 15.07 ЮЗ 3 2000 м слаб. морось 8/8 540 м
[Cu Sc]
+28.8 +26.3 86 +44 +44 опасность
перегрева
1006.7 1005.1 0.0
21 15.07 ЮЗ 2 2000 м мгла {дождь} 6/6 540 м
[Cu Sc]
+28.4 +25.9 86 +42 +42 опасность
перегрева
1005.3 1003.7 0.8
00 16.07 З 3 2000 м мгла {дождь} 8/8 540 м
[Cu Sc]
+27.8 +25.8 89 +41 +41 опасность
перегрева
1005.0 1003.4 3
03 16.07 ЮЗ 3 2000 м в посл. час дождь 9/6 420 м
[Frnb Ac As]
+29.6 +26.0 81 +44 +45 опасность
перегрева
1006.9 1005.3 +26.2 3
06 16.07 З 2 2000 м в посл. час дождь {морось} 9/6 360 м
[Frnb As op]
+28.6 +25.2 82 +42 +45 опасность
перегрева
1007.9 1006.3 4
09 16.07 З 3 2000 м мгла {дождь} 9/6 420 м
[Frnb Ac trans]
+30.2 +26.0 78 +45 +48 опасность
перегрева
1006.5 1004.9 9
12 16.07 З 3 2000 м дым {дождь, морось} 8/6 540 м
[Cu Sc Ac trans]
+30.2 +24.8 73 +43 +44 опасность
перегрева
1005.6 1004.0 +31.4 4

 

Местоположение метеостанции Мумбаи (Махараштра, Индия): широта 19.12 долгота 72.85 высота над уровнем моря 14 м.

В архиве по умолчанию представлена погода в Мумбаи за последнюю неделю. Архивные данные за месяц целиком и за предыдущие месяцы, начиная с января 2011 года, Вы можете получить, выбрав интересующий диапазон дат из раскрывающегося списка и нажав кнопку "Ввод!".


*Определитесь, кто Вы:
робот инопланетянин человек

Внимание! Время в таблицах - всемирное. Для получения местного времени необходимо прибавить поправку, которая равна 5.5 ч.

Смотрите также архив погоды в соседних городах и на ближайших метеорологических станциях:

Погода в Мумбай Колаба (Махараштра, Индия) (25 км)
Погода в Матеране (Махараштра, Индия) (48 км)
Погода в Алибаге (Махараштра, Индия) (55 км)
Погода в Байре (Махараштра, Индия) (94 км)
Погода в Дахану (Махараштра, Индия) (96 км)
Погода в Пуне (Махараштра, Индия) (124 км)
Погода в Нашике (Махараштра, Индия) (138 км)
Погода в Харнае (Махараштра, Индия) (147 км)
Погода в Махабалешваре (Махараштра, Индия) (158 км)
Погода в Валсаде (Гуджарат, Индия) (167 км)

Пояснения к столбцам:

Ветер - указаны скорость ветра в м/с - средняя за 10 мин, порывы в срок и между сроками (в фигурных скобках) и направление, откуда дует ветер: С - северный, СВ - северо-восточный, В - восточный, ЮВ - юго-восточный, Ю - южный, ЮЗ - юго-западный, З - западный, СЗ - северо-западный.
Видимость - горизонтальная дальность видимости в метрах или километрах. При видимости от 1 до 10 км при отсутствии осадков обычно наблюдается дымка, при ухудшении видимости до 1 км и менее - туман. В сухую погоду видимость может ухудшаться дымом, пылью или мглою.
Явления - указаны атмосферные явления, наблюдавшиеся в срок или в последний час перед сроком; фигурными скобками обозначены явления, наблюдавшиеся между сроками (за 1-3 часа до срока); квадратными скобками обозначены град или гололедные отложения с указанием их диаметра в мм.
Облачность - указаны через наклонную черту общая и нижняя облачность в баллах и высота нижней границы облаков в метрах; квадратными скобками обозначены формы облаков: Ci - перистые, Cs - перисто-слоистые, Cc - перисто-кучевые, Ac - высококучевые, As - высокослоистые, Sc - слоисто-кучевые, Ns - слоисто-дождевые, Cu - кучевые, Cb - кучево-дождевые. Подробнее классификацию облаков см. в Атласе облаков (PDF).
T - Температура воздуха - температура, измеренная на высоте 2 м над землей.
Td - Температура точки росы - температура, при понижении до которой содержащийся в воздухе водяной пар достигнет насыщения.
f - Относительная влажность воздуха - влажноcть воздуха, измеренная на высоте 2 м над землей.
Te - Эффективная температура - температура, которую ощущает одетый по сезону человек в тени. Характеристика душности погоды. При расчете учитывается влияние влажности воздуха и скорости ветра на теплоощущения человека.
Tes - Эффективная температура на солнце - температура, которую ощущает человек, с поправкой на солнечный нагрев. Характеристика знойности погоды. Зависит от высоты солнца над горизонтом, облачности и скорости ветра. Ночью, в пасмурную погоду, а также при ветре 12 м/с и более поправка равна нулю.
P - Атмосферное давление - приведенное к уровню моря атмосферное давление.
Po - Атмосферное давление - измеренное на уровне метеостанции атмосферное давление.
Tmin - Минимальная температура - минимум температуры воздуха на высоте 2 м над землей.
Tmax - Максимальная температура - максимум температуры воздуха на высоте 2 м над землей.
R - Количество осадков - Количество выпавших осадков за период времени, мм. При наведении курсора мыши на число - период времени, за который выпало указанное количество осадков.
R24 - Количество осадков - Количество выпавших осадков за 24 часа, мм.
S - Снежный покров - Высота снежного покрова, см. При наведении курсора мыши на число - состояние снежного покрова и степень покрытия местности в баллах.